N4NVD-13 Weather Reports


time (UTC)temp
C
wind
direction
speed
KPH
gust
KPH
rain 1hr
cm
rain 24hr
cm
rain mn
cm
humidity
%
barometer
mb
20260506185405 23 59 11.3 12.9 0.00 0.00 0.00 86 1009.7
20260506184902 22 65 3.2 11.3 0.00 0.00 0.00 88 1009.3
20260506184359 22 41 9.7 14.5 0.00 0.00 0.00 89 1009.6
20260506183856 22 20 11.3 14.5 0.00 0.00 0.00 86 1009.7
20260506183351 21 131 3.2 14.5 0.00 0.00 0.00 91 1009.6
20260506182849 21 97 9.7 12.9 0.00 0.00 0.00 89 1009.6
20260506182346 20 19 6.4 11.3 0.00 0.00 0.00 90 1009.8
20260506181843 20 27 8.0 16.1 0.00 0.00 0.00 90 1009.7
20260506181341 20 14 3.2 14.5 0.00 0.00 0.00 89 1010.2
20260506180838 20 79 11.3 24.1 0.00 0.00 0.00 92 1010.1
20260506180334 20 27 0.0 11.3 0.00 0.00 0.00 91 1010.3
20260506175830 20 5 3.2 14.5 0.00 0.00 0.00 91 1010.7
20260506175327 20 1 8.0 9.7 0.00 0.00 0.00 91 1010.8
20260506174824 19 43 9.7 17.7 0.00 0.00 0.00 92 1010.8
20260506174321 19 102 9.7 9.7 0.00 0.00 0.00 92 1011.0
20260506173819 18 28 8.0 16.1 0.00 0.00 0.00 91 1010.8
20260506173316 18 28 16.1 20.9 0.00 0.00 0.00 94 1010.5
20260506172813 18 0 8.0 11.3 0.00 0.00 0.00 95 1011.0
20260506172309 18 27 11.3 33.8 0.00 0.00 0.00 96 1010.8
20260506171807 17 87 6.4 14.5 0.00 0.00 0.00 97 1011.0
20260506171304 17 20 4.8 17.7 0.00 0.00 0.00 98 1011.5
20260506170802 18 346 9.7 16.1 0.00 0.00 0.00 97 1011.5
20260506170257 18 358 6.4 25.7 0.00 0.00 0.00 97 1011.5
20260506165756 18 23 4.8 17.7 0.00 0.00 0.00 96 1011.5
20260506165253 18 100 8.0 25.7 0.00 0.00 0.00 96 1011.9
20260506164750 18 19 6.4 19.3 0.00 0.00 0.00 95 1011.8
20260506164247 19 349 6.4 17.7 0.00 0.00 0.00 95 1011.9
20260506163744 19 3 8.0 17.7 0.00 0.00 0.00 94 1011.7
20260506163238 20 11 9.7 25.7 0.00 0.00 0.00 93 1011.6
20260506162735 21 338 4.8 27.4 0.00 0.00 0.00 90 1011.6
20260506162233 26 270 6.4 6.4 0.00 0.00 0.00 92 1011.1
20260506161730 26 270 0.0 1.6 0.00 0.00 0.00 91 1011.1
20260506161227 26 201 0.0 0.0 0.00 0.00 0.00 92 1011.0
20260506160724 26 215 1.6 4.8 0.00 0.00 0.00 92 1010.9
20260506160221 26 237 0.0 4.8 0.00 0.00 0.00 92 1010.7
20260506155720 26 210 3.2 3.2 0.00 0.00 0.00 91 1010.8
20260506155216 26 99 0.0 1.6 0.00 0.00 0.00 91 1010.3
20260506153318 26 197 3.2 4.8 0.00 0.00 0.00 92 1009.8
20260506152815 26 154 4.8 4.8 0.00 0.00 0.00 92 1009.7
20260506152312 26 128 0.0 4.8 0.00 0.00 0.00 93 1009.9
20260506151811 26 93 4.8 4.8 0.00 0.00 0.00 93 1009.8
20260506151307 26 66 1.6 4.8 0.00 0.00 0.00 94 1009.7
20260506150804 25 124 3.2 8.0 0.00 0.00 0.00 94 1009.8
20260506150304 25 139 3.2 4.8 0.00 0.00 0.00 94 1009.9
20260506145758 25 106 0.0 6.4 0.00 0.00 0.00 93 1009.5
20260506145254 26 217 3.2 4.8 0.00 0.00 0.00 94 1009.5
20260506144752 25 166 1.6 4.8 0.00 0.00 0.00 94 1009.7
20260506144248 25 165 1.6 4.8 0.00 0.00 0.00 94 1009.7
20260506143746 25 127 0.0 3.2 0.00 0.00 0.00 95 1009.9
20260506143243 25 106 0.0 1.6 0.00 0.00 0.00 95 1009.7
20260506142742 25 35 1.6 4.8 0.00 0.00 0.00 96 1009.8
20260506142239 25 12 1.6 4.8 0.00 0.00 0.00 96 1009.7
20260506141738 25 101 3.2 3.2 0.00 0.00 0.00 96 1009.6
20260506141235 25 81 0.0 3.2 0.00 0.00 0.00 97 1008.8
20260506140733 25 103 0.0 8.0 0.00 0.00 0.00 97 1008.8
20260506140229 25 90 3.2 4.8 0.00 0.00 0.00 97 1008.8
20260506135726 25 90 0.0 3.2 0.00 0.00 0.00 98 1009.0
20260506135222 24 8 0.0 3.2 0.00 0.00 0.00 98 1008.9
20260506134720 24 90 0.0 4.8 0.00 0.00 0.00 98 1009.0
20260506134216 24 45 3.2 3.2 0.00 0.00 0.00 98 1009.0
20260506133713 24 83 0.0 3.2 0.00 0.00 0.00 98 1008.7
20260506133209 24 90 0.0 3.2 0.00 0.00 0.00 98 1008.8
20260506132707 24 154 1.6 4.8 0.00 0.00 0.00 98 1008.8
20260506132203 24 96 0.0 3.2 0.00 0.00 0.00 99 1009.0
20260506131701 24 81 0.0 0.0 0.00 0.00 0.00 99 1008.9
20260506131157 24 114 1.6 1.6 0.00 0.00 0.00 99 1008.9
20260506130654 24 114 0.0 1.6 0.00 0.00 0.00 99 1008.8
20260506130152 23 82 0.0 0.0 0.00 0.00 0.00 99 1009.0
20260506125649 23 120 0.0 0.0 0.00 0.00 0.00 99 1009.1
20260506125147 23 90 0.0 1.6 0.00 0.00 0.00 99 1008.7
20260506124645 23 66 0.0 0.0 0.00 0.00 0.00 99 1009.0
20260506124142 23 66 0.0 0.0 0.00 0.00 0.00 99 1008.9
20260506123640 23 66 0.0 0.0 0.00 0.00 0.00 99 1008.7
20260506123138 23 66 0.0 1.6 0.00 0.00 0.00 99 1008.8
20260506122635 23 81 0.0 0.0 0.00 0.00 0.00 99 1008.8
20260506122133 23 352 0.0 0.0 0.00 0.00 0.00 99 1008.8
20260506121630 23 90 0.0 0.0 0.00 0.00 0.00 99 1008.6
20260506121126 23 90 0.0 0.0 0.00 0.00 0.00 99 1008.6
20260506120624 23 90 0.0 0.0 0.00 0.00 0.00 99 1008.9
20260506120121 23 90 0.0 0.0 0.00 0.00 0.00 98 1008.6
20260506115620 23 90 0.0 0.0 0.00 0.00 0.00 98 1008.6
20260506115118 23 90 0.0 0.0 0.00 0.00 0.00 98 1008.7
20260506114614 23 90 0.0 0.0 0.00 0.00 0.00 98 1008.7
20260506114113 23 90 0.0 0.0 0.00 0.00 0.00 98 1008.7
20260506113611 23 81 0.0 1.6 0.00 0.00 0.00 98 1008.4
20260506113108 23 0 0.0 0.0 0.00 0.00 0.00 98 1008.5
20260506112604 23 90 0.0 0.0 0.00 0.00 0.00 98 1008.3
20260506112102 23 165 0.0 0.0 0.00 0.00 0.00 98 1008.3
20260506111559 23 165 0.0 0.0 0.00 0.00 0.00 97 1008.3
20260506111056 23 234 0.0 0.0 0.00 0.00 0.00 97 1008.1
20260506110554 23 195 0.0 1.6 0.00 0.00 0.00 97 1008.4
20260506110051 23 270 0.0 3.2 0.00 0.00 0.00 97 1008.2
20260506105547 23 243 0.0 3.2 0.00 0.00 0.00 97 1008.0
20260506105044 23 243 0.0 3.2 0.00 0.00 0.00 97 1008.1
20260506104542 23 240 0.0 3.2 0.00 0.00 0.00 97 1008.0
20260506104040 23 203 0.0 4.8 0.00 0.00 0.00 97 1007.9
20260506103537 23 174 0.0 3.2 0.00 0.00 0.00 97 1007.9
20260506103033 23 262 3.2 3.2 0.00 0.00 0.00 97 1008.0
20260506102532 23 230 4.8 4.8 0.00 0.00 0.00 97 1008.0
20260506102029 23 209 0.0 3.2 0.00 0.00 0.00 97 1007.8
20260506101526 24 151 0.0 4.8 0.00 0.00 0.00 97 1007.9
20260506101023 24 204 3.2 8.0 0.00 0.00 0.00 97 1007.8
20260506100521 24 255 0.0 4.8 0.00 0.00 0.00 97 1007.7
20260506100019 24 140 0.0 3.2 0.00 0.00 0.00 97 1007.4
20260506095518 24 234 0.0 4.8 0.00 0.00 0.00 97 1007.8
20260506095013 24 221 3.2 11.3 0.00 0.00 0.00 96 1007.4
20260506094511 24 232 3.2 6.4 0.00 0.00 0.00 97 1007.3
20260506094009 24 152 6.4 6.4 0.00 0.00 0.00 97 1007.2
20260506093507 24 197 0.0 4.8 0.00 0.00 0.00 97 1007.3
20260506093004 24 212 4.8 8.0 0.00 0.00 0.00 97 1007.5
20260506092502 24 208 3.2 4.8 0.00 0.00 0.00 97 1007.3
20260506091958 24 212 6.4 11.3 0.00 0.00 0.00 97 1007.0
20260506091457 24 216 4.8 11.3 0.00 0.00 0.00 97 1007.4
20260506090953 24 154 1.6 11.3 0.00 0.00 0.00 97 1007.4
20260506090451 24 214 6.4 11.3 0.00 0.00 0.00 97 1007.2
20260506085947 24 212 4.8 8.0 0.00 0.00 0.00 97 1007.4
20260506085444 24 214 6.4 9.7 0.00 0.00 0.00 97 1007.3
20260506084941 24 180 3.2 9.7 0.00 0.00 0.00 97 1007.1
20260506084438 24 152 0.0 11.3 0.00 0.00 0.00 97 1007.3
20260506083934 24 235 3.2 6.4 0.00 0.00 0.00 97 1007.1
20260506083431 24 209 1.6 9.7 0.00 0.00 0.00 97 1007.2
20260506082928 24 228 3.2 8.0 0.00 0.00 0.00 97 1007.2
20260506082425 24 215 9.7 14.5 0.00 0.00 0.00 97 1007.1
20260506081921 23 222 4.8 9.7 0.00 0.00 0.00 97 1007.2
20260506081420 23 182 6.4 16.1 0.00 0.00 0.00 97 1007.0
20260506080916 23 185 1.6 14.5 0.00 0.00 0.00 97 1007.0
20260506080413 23 137 0.0 11.3 0.00 0.00 0.00 97 1007.1
20260506073357 23 154 4.8 12.9 0.00 0.00 0.00 98 1007.3
20260506072854 23 186 1.6 8.0 0.00 0.00 0.00 98 1007.2
20260506072352 23 165 3.2 16.1 0.00 0.00 0.00 98 1007.2
20260506071849 23 157 4.8 12.9 0.00 0.00 0.00 98 1007.5
20260506071347 23 172 0.0 16.1 0.00 0.00 0.00 98 1007.6
20260506070843 23 227 4.8 16.1 0.00 0.00 0.00 98 1007.6
20260506070341 23 206 6.4 9.7 0.00 0.00 0.00 98 1007.4
20260506062318 23 194 3.2 12.9 0.00 0.00 0.00 98 1007.7
20260506061814 23 113 3.2 8.0 0.00 0.00 0.00 98 1007.9
20260506061311 23 229 4.8 11.3 0.00 0.00 0.00 98 1007.8
20260506060809 23 220 4.8 9.7 0.00 0.00 0.00 98 1007.8
20260506060307 23 231 0.0 8.0 0.00 0.00 0.00 98 1007.9
20260506051238 23 144 4.8 9.7 0.00 0.00 0.00 97 1007.8
20260506050736 23 157 1.6 14.5 0.00 0.00 0.00 97 1007.8
20260506050233 23 160 4.8 9.7 0.00 0.00 0.00 97 1007.7
20260506044724 23 133 9.7 11.3 0.00 0.00 0.00 96 1007.6
20260506044221 23 147 8.0 11.3 0.00 0.00 0.00 96 1007.9
20260506043719 24 213 3.2 16.1 0.00 0.00 0.00 96 1007.8
20260506043216 24 237 4.8 4.8 0.00 0.00 0.00 96 1007.8
20260506042715 24 159 0.0 6.4 0.00 0.00 0.00 96 1007.6
20260506042213 24 164 0.0 8.0 0.00 0.00 0.00 96 1007.5
20260506041711 24 215 0.0 9.7 0.00 0.00 0.00 95 1007.7
20260506041208 24 150 0.0 9.7 0.00 0.00 0.00 95 1007.5
20260506040705 24 206 6.4 11.3 0.00 0.00 0.00 95 1007.5
20260506040201 24 209 1.6 9.7 0.00 0.00 0.00 95 1007.5
20260506035653 24 201 3.2 12.9 0.00 0.00 0.00 95 1007.5
20260506035149 24 159 4.8 8.0 0.00 0.00 0.00 95 1007.3
20260506034646 24 159 3.2 11.3 0.00 0.00 0.00 95 1007.2
20260506034143 24 211 0.0 12.9 0.00 0.00 0.00 95 1007.0
20260506033641 24 188 0.0 6.4 0.00 0.00 0.00 95 1006.9
20260506033137 24 133 4.8 6.4 0.00 0.00 0.00 95 1007.0
20260506032634 24 152 4.8 8.0 0.00 0.00 0.00 94 1006.9
20260506032132 25 199 3.2 8.0 0.00 0.00 0.00 94 1006.9
20260506031628 25 201 6.4 11.3 0.00 0.00 0.00 94 1007.0
20260506031125 25 180 6.4 11.3 0.00 0.00 0.00 94 1006.6
20260506030624 25 223 11.3 14.5 0.00 0.00 0.00 93 1006.6
20260506030121 25 172 0.0 19.3 0.00 0.00 0.00 93 1006.5
20260506025618 25 158 12.9 16.1 0.00 0.00 0.00 93 1006.4
20260506025114 25 158 9.7 12.9 0.00 0.00 0.00 93 1006.5
20260506024612 25 213 6.4 16.1 0.00 0.00 0.00 92 1006.3
20260506024107 25 154 6.4 12.9 0.00 0.00 0.00 92 1006.3
20260506023604 25 180 8.0 9.7 0.00 0.00 0.00 92 1006.5
20260506023101 25 162 9.7 12.9 0.00 0.00 0.00 91 1006.1
20260506022558 25 180 3.2 9.7 0.00 0.00 0.00 91 1006.4
20260506022055 25 180 3.2 11.3 0.00 0.00 0.00 91 1006.1
20260506021553 25 165 8.0 14.5 0.00 0.00 0.00 91 1006.2
20260506021050 25 194 3.2 11.3 0.00 0.00 0.00 91 1006.4
20260506020547 25 157 8.0 11.3 0.00 0.00 0.00 91 1006.2
20260506020044 25 221 3.2 11.3 0.00 0.00 0.00 91 1006.2
20260506015542 25 170 4.8 9.7 0.00 0.00 0.00 91 1006.4
20260506015039 25 166 4.8 11.3 0.00 0.00 0.00 91 1006.1
20260506014536 25 212 0.0 6.4 0.00 0.00 0.00 91 1006.2
20260506014031 25 194 4.8 9.7 0.00 0.00 0.00 91 1006.0
20260506013531 25 154 8.0 9.7 0.00 0.00 0.00 91 1006.0
20260506013027 25 195 0.0 8.0 0.00 0.00 0.00 91 1006.0
20260506012523 25 166 1.6 4.8 0.00 0.00 0.00 90 1006.0
20260506012020 25 210 4.8 6.4 0.00 0.00 0.00 90 1005.8
20260506011518 25 212 3.2 11.3 0.00 0.00 0.00 90 1005.7
20260506011014 26 154 6.4 11.3 0.00 0.00 0.00 89 1005.7
20260506010514 26 207 8.0 11.3 0.00 0.00 0.00 89 1005.5
20260506010009 26 161 6.4 9.7 0.00 0.00 0.00 89 1005.5
20260506005507 26 199 4.8 11.3 0.00 0.00 0.00 88 1005.3
20260506005002 26 173 9.7 12.9 0.00 0.00 0.00 88 1005.1
20260506004500 26 185 3.2 17.7 0.00 0.00 0.00 87 1005.0
20260506003956 26 165 3.2 9.7 0.00 0.00 0.00 88 1005.1
20260506003453 26 214 4.8 11.3 0.00 0.00 0.00 87 1005.1
20260506002949 26 117 3.2 11.3 0.00 0.00 0.00 87 1004.9
20260506002445 26 186 6.4 17.7 0.00 0.00 0.00 87 1005.0
20260506001941 26 157 4.8 11.3 0.00 0.00 0.00 87 1004.8
20260506001438 27 157 1.6 11.3 0.00 0.00 0.00 87 1005.0
20260506000935 27 205 4.8 11.3 0.00 0.00 0.00 86 1005.0
20260506000433 27 156 3.2 9.7 0.00 0.00 0.00 86 1005.2
20260505235929 27 180 1.6 11.3 0.00 0.00 0.00 86 1005.2
20260505235428 27 178 6.4 20.9 0.00 0.00 0.00 85 1005.1
20260505234924 27 135 9.7 11.3 0.00 0.00 0.00 85 1005.0
20260505234421 27 245 3.2 14.5 0.00 0.00 0.00 85 1005.2
20260505233918 27 141 9.7 14.5 0.00 0.00 0.00 85 1005.0
20260505233416 27 166 4.8 16.1 0.00 0.00 0.00 85 1005.0
20260505232913 27 223 9.7 9.7 0.00 0.00 0.00 85 1005.2
20260505232411 27 188 1.6 9.7 0.00 0.00 0.00 85 1004.9
20260505231907 27 175 4.8 14.5 0.00 0.00 0.00 84 1005.0
20260505231405 28 157 9.7 9.7 0.00 0.00 0.00 84 1004.5
20260505230903 28 240 8.0 14.5 0.00 0.00 0.00 84 1004.9
20260505230400 28 169 4.8 12.9 0.00 0.00 0.00 84 1004.7
20260505225856 28 165 1.6 14.5 0.00 0.00 0.00 84 1004.8
20260505225354 28 210 9.7 16.1 0.00 0.00 0.00 83 1004.9
20260505224849 28 129 6.4 11.3 0.00 0.00 0.00 81 1004.8
20260505224347 28 188 3.2 16.1 0.00 0.00 0.00 80 1005.0
20260505223844 29 202 4.8 12.9 0.00 0.00 0.00 80 1004.9
20260505223341 28 195 6.4 12.9 0.00 0.00 0.00 80 1004.8
20260505222836 28 183 8.0 16.1 0.00 0.00 0.00 80 1004.8
20260505222333 29 213 8.0 11.3 0.00 0.00 0.00 80 1005.0
20260505221830 28 219 11.3 16.1 0.00 0.00 0.00 80 1004.9
20260505221327 29 233 8.0 11.3 0.00 0.00 0.00 79 1005.0
20260505220824 29 191 4.8 9.7 0.00 0.00 0.00 80 1004.8
20260505220321 30 212 9.7 11.3 0.00 0.00 0.00 80 1005.1
20260505215819 29 229 4.8 12.9 0.00 0.00 0.00 80 1004.9
20260505215317 28 216 11.3 14.5 0.00 0.00 0.00 81 1005.0
20260505214814 28 232 3.2 14.5 0.00 0.00 0.00 81 1005.1
20260505214311 29 222 14.5 14.5 0.00 0.00 0.00 80 1005.1
20260505213808 30 210 3.2 6.4 0.00 0.00 0.00 79 1004.8
20260505213306 28 225 4.8 9.7 0.00 0.00 0.00 81 1005.3
20260505212801 28 242 9.7 16.1 0.00 0.00 0.00 81 1005.3
20260505212259 29 198 4.8 11.3 0.00 0.00 0.00 80 1005.3
20260505211755 28 205 8.0 16.1 0.00 0.00 0.00 82 1005.0
20260505211253 28 217 12.9 17.7 0.00 0.00 0.00 82 1005.3
20260505210749 28 144 8.0 14.5 0.00 0.00 0.00 81 1005.5
20260505210246 28 204 9.7 16.1 0.00 0.00 0.00 81 1005.9
20260505205743 28 225 9.7 17.7 0.00 0.00 0.00 81 1005.8
20260505205242 29 148 3.2 8.0 0.00 0.00 0.00 81 1005.9
20260505204738 29 180 0.0 17.7 0.00 0.00 0.00 80 1006.0
20260505204236 28 227 4.8 17.7 0.00 0.00 0.00 80 1005.9
20260505203733 28 200 8.0 14.5 0.00 0.00 0.00 80 1006.1
20260505203230 28 222 14.5 19.3 0.00 0.00 0.00 81 1006.2
20260505202725 28 210 12.9 17.7 0.00 0.00 0.00 81 1006.1
20260505202222 29 218 8.0 11.3 0.00 0.00 0.00 82 1006.2
20260505201718 28 210 16.1 17.7 0.00 0.00 0.00 81 1006.4
20260505201216 28 157 8.0 14.5 0.00 0.00 0.00 82 1006.2
20260505200714 28 233 3.2 9.7 0.00 0.00 0.00 81 1006.4
20260505200211 28 225 8.0 25.7 0.00 0.00 0.00 81 1006.5
20260505195706 28 231 8.0 16.1 0.00 0.00 0.00 82 1006.6
20260505195204 28 226 17.7 24.1 0.00 0.00 0.00 82 1006.7
20260505194701 28 233 9.7 17.7 0.00 0.00 0.00 82 1006.6
20260505194157 28 207 11.3 20.9 0.00 0.00 0.00 82 1006.7
20260505193654 28 229 4.8 16.1 0.00 0.00 0.00 83 1006.9
20260505193151 28 226 14.5 17.7 0.00 0.00 0.00 84 1006.9
20260505192649 27 208 6.4 16.1 0.00 0.00 0.00 83 1006.9
20260505192147 27 223 8.0 14.5 0.00 0.00 0.00 84 1006.8
20260505191645 28 213 6.4 14.5 0.00 0.00 0.00 82 1007.0
20260505191143 27 228 11.3 19.3 0.00 0.00 0.00 84 1006.9
20260505190639 27 226 22.5 37.0 0.00 0.00 0.00 82 1007.1
20260505190138 27 223 8.0 38.6 0.00 0.00 0.00 83 1006.9